Regional Weather Roundup
Issued by NWS Goodland, KS

Home | Current Version | Previous Version | Text Only | Print | Product List | Glossary Off
Versions: 1 2 3 4 5 6 7 8 9 10 11 12 13 14 15 16 17 18 19 20 21 22 23 24 25 26 27 28 29 30 31 32 33 34 35 36 37 38 39 40 41 42 43 44 45 46 47 48 49 50

000
ASUS43 KGLD 251159
RWRGLD

GOODLAND FORECAST AREA HOURLY WEATHER ROUNDUP
NATIONAL WEATHER SERVICE GOODLAND KS
600 AM MDT SAT MAR 25 2017

...OFFICIAL OBSERVATIONS...

CITY           SKY/WX    TMP DP  RH WIND       PRES   REMARKS
GOODLAND KS    CLEAR     31  29  92 NW8       30.04S
HILL CITY KS   CLOUDY    42  37  82 N15       30.01R
IMPERIAL NEB   CLOUDY    33  27  78 NW6       30.05F
MCCOOK NEB     CLEAR     34  31  88 NW7       30.03S
AKRON CO       CLOUDY    34  27  75 S5        30.05F
BURLINGTON CO  CLOUDY    33  29  85 NW13      30.06R
LIMON CO       CLEAR     23  22  96 CALM      30.08S
$$

...UNOFFICIAL OBSERVATIONS...

CITY           SKY/WX    TMP DP  RH WIND       PRES   REMARKS
LENORA KS        N/A     37  32  82 CALM        N/A
NORTON KS      CLEAR     36  30  80 NW9       30.02S
SHARON SPRINGS   N/A     33  31  94 NW8         N/A
TRENTON NEB      N/A     33  32  96 N8          N/A
YUMA CO        FAIR      28  27  93 W7        30.05F
$$



USA.gov is the U.S. government's official web portal to all federal, state and local government web resources and services.